This is the latest recevied weather packets stored in our database for station/object NK7E. If no packets are shown the sender has not sent any weather packets the latest 10 day(s).
| Time | Temp. | Humidity | Pressure | Rain* | Wind** | Luminosity | Snow |
|---|---|---|---|---|---|---|---|
| 1777658716 | 23.89° C | 32% | 1013.4 hPa | 0 mm | - | 918 W/m² | - |
| 1777658116 | 23.33° C | 33% | 1013.4 hPa | 0 mm | - | 905 W/m² | - |
| 1777657516 | 23.33° C | 35% | 1013.5 hPa | 0 mm | - | 886 W/m² | - |
| 1777656916 | 22.78° C | 36% | 1013.7 hPa | 0 mm | - | 870 W/m² | - |
| 1777656316 | 22.78° C | 36% | 1013.6 hPa | 0 mm | - | 852 W/m² | - |
| 1777655716 | 22.22° C | 36% | 1013.5 hPa | 0 mm | - | 831 W/m² | - |
| 1777655116 | 22.22° C | 37% | 1013.5 hPa | 0 mm | - | 811 W/m² | - |
| 1777654516 | 21.67° C | 37% | 1013.5 hPa | 0 mm | - | 789 W/m² | - |
| 1777653916 | 21.67° C | 37% | 1013.6 hPa | 0 mm | - | 764 W/m² | - |
| 1777653316 | 21.67° C | 38% | 1013.6 hPa | 0 mm | - | 738 W/m² | - |
| 1777652716 | 21.11° C | 39% | 1013.7 hPa | 0 mm | - | 712 W/m² | - |
| 1777652116 | 21.11° C | 43% | 1013.6 hPa | 0 mm | - | 680 W/m² | - |
| 1777651516 | 21.11° C | 45% | 1013.6 hPa | 0 mm | - | 652 W/m² | - |
| 1777650916 | 21.11° C | 45% | 1013.5 hPa | 0 mm | - | 619 W/m² | - |
| 1777650316 | 20.56° C | 46% | 1013.3 hPa | 0 mm | - | 586 W/m² | - |
| 1777649716 | 20.56° C | 48% | 1013.2 hPa | 0 mm | - | 554 W/m² | - |
| 1777649116 | 20° C | 49% | 1013.2 hPa | 0 mm | - | 520 W/m² | - |
| 1777648516 | 19.44° C | 51% | 1013.3 hPa | 0 mm | - | 485 W/m² | - |
| 1777647916 | 19.44° C | 53% | 1013.2 hPa | 0 mm | - | 451 W/m² | - |
| 1777647316 | 18.89° C | 55% | 1013 hPa | 0 mm | - | 415 W/m² | - |
| 1777646716 | 18.33° C | 56% | 1012.9 hPa | 0 mm | - | 378 W/m² | - |
| 1777646116 | 17.78° C | 59% | 1012.8 hPa | 0 mm | - | 342 W/m² | - |
| 1777645516 | 17.22° C | 60% | 1012.8 hPa | 0 mm | - | 306 W/m² | - |
| 1777644916 | 17.22° C | 61% | 1012.8 hPa | 0 mm | - | 269 W/m² | - |
| 1777644316 | 16.67° C | 61% | 1012.8 hPa | 0 mm | - | 235 W/m² | - |
* Rain latest hour (hover to see other rain measurements)
** Current wind speed in m/s (hover to see current wind gust speed)